When you browse on this site, cookies collect data to enhance your experience and personalize the content and advertising you see.
Visit our Privacy Policy to learn more. By continuing to use the site, you agree to this use of cookies and data.
  • Em Portugal
  • Lista de países
  • Para 7 dias
  • Temperatura da água
  • Mapa do tempo
  • Widgets de tempo
  • user-avatar
    Iniciar Sessão

    Previsão horária em Ghazni

    Hoje, 5 Junho, Sexta-feira

    Tempo Temperatura Precipitação Vento Pressão Humidade
    00:00 +21°C° 0 mm 6 m/s 588 mmHg 24%
    01:00 +20°C° 0 mm 6 m/s 587 mmHg 25%
    02:00 +19°C° 0 mm 5 m/s 587 mmHg 25%
    03:00 +19°C° 0 mm 5 m/s 586 mmHg 26%
    04:00 +17°C° 0 mm 5 m/s 586 mmHg 27%
    05:00 +17°C° 0 mm 5 m/s 586 mmHg 28%
    06:00 +19°C° 0 mm 5 m/s 587 mmHg 25%
    07:00 +20°C° 0 mm 5 m/s 587 mmHg 22%
    08:00 +21°C° 0 mm 4 m/s 588 mmHg 19%
    09:00 +23°C° 0 mm 5 m/s 589 mmHg 18%
    10:00 +25°C° 0 mm 5 m/s 589 mmHg 17%
    11:00 +26°C° 0 mm 6 m/s 589 mmHg 15%
    12:00 +27°C° 0 mm 6 m/s 589 mmHg 15%
    13:00 +28°C° 0 mm 6 m/s 589 mmHg 14%
    14:00 +29°C° 0 mm 5 m/s 589 mmHg 13%
    15:00 +29°C° 0 mm 6 m/s 589 mmHg 13%
    16:00 +29°C° 0 mm 7 m/s 589 mmHg 13%
    17:00 +29°C° 0 mm 8 m/s 588 mmHg 13%
    18:00 +28°C° 0 mm 8 m/s 588 mmHg 15%
    19:00 +26°C° 0 mm 9 m/s 588 mmHg 18%
    20:00 +24°C° 0 mm 9 m/s 587 mmHg 20%
    21:00 +23°C° 0 mm 9 m/s 587 mmHg 21%
    22:00 +22°C° 0 mm 8 m/s 587 mmHg 22%
    23:00 +21°C° 0 mm 8 m/s 588 mmHg 23%

    Amanhã, 6 Junho, Sábado

    Tempo Temperatura Precipitação Vento Pressão Humidade
    00:00 +21°C° 0 mm 8 m/s 587 mmHg 24%
    01:00 +20°C° 0 mm 7 m/s 587 mmHg 25%
    02:00 +20°C° 0 mm 7 m/s 586 mmHg 26%
    03:00 +18°C° 0 mm 7 m/s 586 mmHg 26%
    04:00 +18°C° 0 mm 7 m/s 586 mmHg 27%
    05:00 +17°C° 0 mm 7 m/s 586 mmHg 27%
    06:00 +18°C° 0 mm 7 m/s 587 mmHg 25%
    07:00 +21°C° 0 mm 7 m/s 587 mmHg 23%
    08:00 +22°C° 0 mm 7 m/s 588 mmHg 20%
    09:00 +23°C° 0 mm 7 m/s 588 mmHg 18%
    10:00 +26°C° 0 mm 7 m/s 589 mmHg 15%
    11:00 +27°C° 0 mm 7 m/s 589 mmHg 13%
    12:00 +28°C° 0 mm 7 m/s 589 mmHg 11%
    13:00 +29°C° 0 mm 6 m/s 589 mmHg 10%
    14:00 +30°C° 0 mm 6 m/s 589 mmHg 8%
    15:00 +30°C° 0 mm 6 m/s 589 mmHg 8%
    16:00 +30°C° 0 mm 6 m/s 589 mmHg 8%
    17:00 +30°C° 0 mm 6 m/s 588 mmHg 8%
    18:00 +28°C° 0 mm 7 m/s 588 mmHg 10%
    19:00 +26°C° 0 mm 8 m/s 587 mmHg 12%
    20:00 +24°C° 0 mm 9 m/s 587 mmHg 14%
    21:00 +23°C° 0 mm 8 m/s 587 mmHg 15%
    22:00 +22°C° 0 mm 7 m/s 587 mmHg 16%
    23:00 +21°C° 0 mm 7 m/s 587 mmHg 17%

    Depois de amanhã, 7 Junho, Domingo

    Tempo Temperatura Precipitação Vento Pressão Humidade
    00:00 +20°C° 0 mm 6 m/s 587 mmHg 18%
    01:00 +19°C° 0 mm 5 m/s 587 mmHg 18%
    02:00 +19°C° 0 mm 5 m/s 586 mmHg 18%
    03:00 +18°C° 0 mm 4 m/s 586 mmHg 19%
    04:00 +17°C° 0 mm 4 m/s 586 mmHg 20%
    05:00 +17°C° 0 mm 3 m/s 586 mmHg 21%
    06:00 +18°C° 0 mm 3 m/s 586 mmHg 19%
    07:00 +19°C° 0 mm 3 m/s 587 mmHg 18%
    08:00 +21°C° 0 mm 3 m/s 588 mmHg 16%
    09:00 +22°C° 0 mm 3 m/s 588 mmHg 14%
    10:00 +25°C° 0 mm 3 m/s 589 mmHg 12%
    11:00 +26°C° 0 mm 2 m/s 589 mmHg 10%
    12:00 +27°C° 0 mm 2 m/s 589 mmHg 9%
    13:00 +28°C° 0 mm 2 m/s 589 mmHg 9%
    14:00 +29°C° 0 mm 2 m/s 589 mmHg 8%
    15:00 +29°C° 0 mm 2 m/s 588 mmHg 7%
    16:00 +30°C° 0 mm 2 m/s 588 mmHg 7%
    17:00 +30°C° 0 mm 2 m/s 588 mmHg 7%
    18:00 +29°C° 0 mm 2 m/s 588 mmHg 9%
    19:00 +27°C° 0 mm 1 m/s 587 mmHg 11%
    20:00 +26°C° 0 mm 1 m/s 587 mmHg 14%
    21:00 +25°C° 0 mm 2 m/s 587 mmHg 15%
    22:00 +24°C° 0 mm 3 m/s 587 mmHg 16%
    23:00 +23°C° 0 mm 4 m/s 587 mmHg 17%

    8 Junho, Segunda-feira

    Tempo Temperatura Precipitação Vento Pressão Humidade
    00:00 +22°C° 0 mm 3 m/s 587 mmHg 20%
    01:00 +21°C° 0 mm 2 m/s 586 mmHg 23%
    02:00 +20°C° 0 mm 2 m/s 586 mmHg 26%
    03:00 +19°C° 0 mm 2 m/s 586 mmHg 27%
    04:00 +19°C° 0 mm 2 m/s 585 mmHg 27%
    05:00 +18°C° 0 mm 2 m/s 585 mmHg 27%
    06:00 +19°C° 0 mm 2 m/s 586 mmHg 24%
    07:00 +21°C° 0 mm 2 m/s 587 mmHg 21%
    08:00 +23°C° 0 mm 2 m/s 588 mmHg 18%
    09:00 +24°C° 0 mm 2 m/s 588 mmHg 16%
    10:00 +26°C° 0 mm 2 m/s 588 mmHg 14%
    11:00 +27°C° 0 mm 1 m/s 589 mmHg 13%
    12:00 +28°C° 0 mm 2 m/s 589 mmHg 12%
    13:00 +29°C° 0 mm 2 m/s 589 mmHg 11%
    14:00 +31°C° 0 mm 3 m/s 589 mmHg 10%
    15:00 +32°C° 0 mm 4 m/s 589 mmHg 10%
    16:00 +32°C° 0 mm 5 m/s 589 mmHg 10%
    17:00 +33°C° 0 mm 5 m/s 588 mmHg 10%
    18:00 +32°C° 0 mm 6 m/s 588 mmHg 11%
    19:00 +30°C° 0 mm 6 m/s 588 mmHg 12%
    20:00 +28°C° 0 mm 6 m/s 588 mmHg 13%
    21:00 +27°C° 0 mm 6 m/s 588 mmHg 14%
    22:00 +26°C° 0 mm 6 m/s 588 mmHg 15%
    23:00 +25°C° 0 mm 5 m/s 588 mmHg 16%

    9 Junho, Terça-feira

    Tempo Temperatura Precipitação Vento Pressão Humidade
    00:00 +25°C° 0 mm 5 m/s 588 mmHg 18%
    01:00 +23°C° 0 mm 5 m/s 587 mmHg 20%
    02:00 +22°C° 0 mm 4 m/s 587 mmHg 22%
    03:00 +21°C° 0 mm 3 m/s 586 mmHg 24%
    04:00 +20°C° 0 mm 2 m/s 586 mmHg 26%
    05:00 +20°C° 0 mm 1 m/s 585 mmHg 28%
    06:00 +22°C° 0 mm 1 m/s 586 mmHg 26%
    07:00 +23°C° 0 mm 1 m/s 587 mmHg 23%
    08:00 +25°C° 0 mm 1 m/s 588 mmHg 20%
    09:00 +26°C° 0 mm 2 m/s 589 mmHg 17%
    10:00 +28°C° 0 mm 2 m/s 589 mmHg 15%
    11:00 +29°C° 0 mm 3 m/s 590 mmHg 12%
    12:00 +32°C° 0 mm 5 m/s 590 mmHg 11%
    13:00 +33°C° 0 mm 6 m/s 590 mmHg 10%
    14:00 +34°C° 0 mm 7 m/s 590 mmHg 8%
    15:00 +34°C° 0 mm 7 m/s 590 mmHg 9%
    16:00 +33°C° 0 mm 8 m/s 589 mmHg 9%
    17:00 +33°C° 0 mm 8 m/s 589 mmHg 9%
    18:00 +32°C° 0 mm 7 m/s 589 mmHg 11%
    19:00 +29°C° 0 mm 6 m/s 588 mmHg 12%
    20:00 +28°C° 0 mm 5 m/s 588 mmHg 14%
    21:00 +27°C° 0 mm 4 m/s 588 mmHg 15%
    22:00 +26°C° 0 mm 4 m/s 588 mmHg 16%
    23:00 +25°C° 0 mm 4 m/s 588 mmHg 17%

    10 Junho, Quarta-feira

    Tempo Temperatura Precipitação Vento Pressão Humidade
    00:00 +24°C° 0 mm 3 m/s 587 mmHg 20%
    01:00 +22°C° 0 mm 3 m/s 587 mmHg 22%
    02:00 +21°C° 0 mm 3 m/s 586 mmHg 25%
    03:00 +20°C° 0 mm 3 m/s 586 mmHg 27%
    04:00 +19°C° 0 mm 3 m/s 586 mmHg 30%
    05:00 +19°C° 0 mm 3 m/s 586 mmHg 32%
    06:00 +20°C° 0 mm 4 m/s 587 mmHg 31%
    07:00 +21°C° 0 mm 4 m/s 587 mmHg 29%
    08:00 +22°C° 0 mm 4 m/s 588 mmHg 28%
    09:00 +25°C° 0 mm 4 m/s 589 mmHg 24%
    10:00 +26°C° 0 mm 3 m/s 589 mmHg 20%
    11:00 +28°C° 0 mm 3 m/s 590 mmHg 17%
    12:00 +29°C° 0 mm 3 m/s 590 mmHg 15%
    13:00 +30°C° 0 mm 3 m/s 590 mmHg 13%
    14:00 +31°C° 0 mm 2 m/s 590 mmHg 11%
    15:00 +31°C° 0 mm 3 m/s 590 mmHg 10%
    16:00 +31°C° 0 mm 3 m/s 589 mmHg 10%
    17:00 +33°C° 0 mm 3 m/s 589 mmHg 9%
    18:00 +30°C° 0 mm 2 m/s 589 mmHg 10%
    19:00 +29°C° 0 mm 2 m/s 589 mmHg 12%
    20:00 +28°C° 0 mm 1 m/s 589 mmHg 14%
    21:00 +27°C° 0 mm 2 m/s 588 mmHg 17%
    22:00 +26°C° 0 mm 3 m/s 588 mmHg 21%
    23:00 +25°C° 0 mm 4 m/s 588 mmHg 24%
    Mostrar mais